Weather in Kozlovka

Russia / Chuvash Republic     55°50′25″N   48°14′42″E
temp.,
°C
wind,
m/s
gust,
m/s
humid.,
%
clouds,
%
prec.,
mm/h
press.,
hPa
HPBL,
m
6 may, thu
thu600:00+4wsw3985100 0.0 1011179
03:00+5wsw2476100 0.0 1012116
06:00+6s2385100 0.1 1013117
09:00+9sw358233 0.1 1015411
12:00+15wsw576174 0.2 10141347
15:00+18sw585150 0.4 10141736
18:00+15ssw3870100 0.0 1013246
21:00+11s41081100 0.0 1014168
7 may, fri
fri700:00+10s41381100 0.0 1014260
03:00+10s41278100 0.0 1014243
06:00+11s61372100 0.0 1014335
09:00+15s71259100 0.0 1014937
12:00+18ssw91148100 0.0 10132172
15:00+17s71154100 0.0 10121316
18:00+13wsw71276100 0.4 1013720
21:00+8nw3689100 0.8 1016282
8 may, sat
sat800:00+7nnw2695100 0.1 1018202
03:00+5n2294100 0.1 101843
06:00+7ne24830 0.0 1019204
09:00+12ene456318 0.0 1018937
12:00+13se457282 0.0 1017963
15:00+15s586299 0.1 10151335
18:00+15sse59696 0.0 1014458
21:00+13se61573100 0.0 1012360
9 may, sun
sun900:00+14sse71663100 0.0 1012478
03:00+12s61268100 0.0 1012326
06:00+11sse51279100 0.1 1012288
09:00+13s51377100 0.3 1012524
12:00+13wsw3580100 0.0 1014557
15:00+11nw5685100 0.2 1015453
18:00+9nnw4891100 2.3 1017527
21:00+8nnw3895100 5.9 1019550
10 may, mon
mon1000:00+7n4993100 1.9 1020530
03:00+7n4892100 3.1 1022551
06:00+7nnw5889100 0.0 1024542
09:00+8nnw5676100 0.0 1026847
12:00+10n566773 0.1 10281173
15:00+13n57518 0.1 10281668
18:00+12nne35625 0.0 1029155
21:00+8nne11671 0.0 103010